Date String (YYYY-MM-DD hh:mm:ss) UTC,Instrument flags,absolute air pressure of the measurement (hPa),sample flow rate (lpm),inlet stack bypass flow (lpm),air temperature of the measurement (°C),ambient temperature measured by the external sensor (°C),aerosol sample conditioner tube jacket temperature (°C),OPC LED temperature (°C),internal box temperature (°C),relative humidity of the measurement (%),span deviation,mass concentration of particles derived from Lorenz-Mie calculation of OPC scattering (μg/m³),mass concentration of particles derived from Lorenz-Mie calculation of OPC scattering (μg/m³),mass concentration of particles derived from Lorenz-Mie calculation of OPC scattering (μg/m³)
DateTimeUTC,F1_M11,P_M11,Q1_M11,Q2_M11,T1_M11,T2_M11,T3_M11,T4_M11,T5_M11,U1_M11,ZSPAN_M11,X2_M11,X0_M11,X1_M11
2024-04-06 00:00:00,SystemResetWarning,0814.0,5.00,000.00,025.8,025.0,000.0,034.2,027.6,006.9,0000.0,0003.68,0023.89,0001.49
2024-04-06 00:01:00,SystemResetWarning,0814.0,5.01,000.00,025.8,025.0,000.0,034.2,027.6,007.2,0000.0,0003.64,0023.59,0001.49
2024-04-06 00:02:00,SystemResetWarning,0814.0,5.01,000.00,025.8,025.0,000.0,034.2,027.6,007.3,0000.0,0003.65,0022.13,0001.47
2024-04-06 00:03:00,SystemResetWarning,0813.9,5.00,000.00,025.8,025.1,000.0,034.2,027.7,007.1,0000.0,0003.66,0021.68,0001.46
2024-04-06 00:04:00,SystemResetWarning,0814.0,5.00,000.00,025.8,025.1,000.0,034.3,027.7,007.1,0000.0,0003.62,0020.44,0001.46
2024-04-06 00:05:00,SystemResetWarning,0814.0,5.00,000.00,025.9,025.1,000.0,034.3,027.7,007.3,0000.0,0003.59,0020.76,0001.45
2024-04-06 00:06:00,SystemResetWarning,0814.0,5.01,000.00,025.9,025.1,000.0,034.3,027.7,007.3,0000.0,0003.55,0018.96,0001.45
2024-04-06 00:07:00,SystemResetWarning,0813.9,5.00,000.00,025.9,025.1,000.0,034.3,027.7,007.4,0000.0,0003.59,0018.89,0001.46
2024-04-06 00:08:00,SystemResetWarning,0813.9,4.99,000.00,025.9,025.1,000.0,034.3,027.7,007.3,0000.0,0003.67,0019.19,0001.46
2024-04-06 00:09:00,SystemResetWarning,0814.0,4.99,000.00,025.9,025.2,000.0,034.3,027.8,007.2,0000.0,0003.63,0018.71,0001.46
2024-04-06 00:10:00,SystemResetWarning,0814.0,5.01,000.00,026.0,025.2,000.0,034.4,027.8,007.5,0000.0,0003.64,0017.43,0001.47
2024-04-06 00:11:00,SystemResetWarning,0814.0,5.01,000.00,026.0,025.2,000.0,034.4,027.8,007.2,0000.0,0003.62,0017.26,0001.48
2024-04-06 00:12:00,SystemResetWarning,0813.9,4.99,000.00,026.0,025.2,000.0,034.4,027.8,006.8,0000.0,0003.58,0017.37,0001.48
2024-04-06 00:13:00,SystemResetWarning,0814.1,4.99,000.00,026.0,025.2,000.0,034.4,027.8,006.7,0000.0,0003.53,0017.04,0001.48
2024-04-06 00:14:00,SystemResetWarning,0814.1,5.00,000.00,026.0,025.2,000.0,034.4,027.8,006.8,0000.0,0003.48,0016.57,0001.49
2024-04-06 00:15:00,SystemResetWarning,0814.1,5.01,000.00,026.0,025.2,000.0,034.4,027.8,006.8,0000.0,0003.49,0016.07,0001.48
2024-04-06 00:16:00,SystemResetWarning,0814.1,5.01,000.00,026.0,025.2,000.0,034.4,027.9,006.8,0000.0,0003.55,0016.91,0001.49
2024-04-06 00:17:00,SystemResetWarning,0814.1,5.00,000.00,026.1,025.2,000.0,034.5,027.9,006.9,0000.0,0003.59,0017.26,0001.49
2024-04-06 00:18:00,SystemResetWarning,0814.1,4.98,000.00,026.1,025.3,000.0,034.5,027.9,007.2,0000.0,0003.60,0017.32,0001.48
2024-04-06 00:19:00,SystemResetWarning,0814.1,4.99,000.00,026.1,025.2,000.0,034.5,027.8,006.9,0000.0,0003.57,0016.34,0001.47
2024-04-06 00:20:00,SystemResetWarning,0814.0,5.00,000.00,025.9,023.8,000.0,034.5,027.0,006.9,0000.0,0003.55,0015.97,0001.47
2024-04-06 00:21:00,SystemResetWarning,0813.9,5.01,000.00,025.5,022.5,000.0,034.5,026.3,007.2,0000.0,0003.51,0015.18,0001.45
2024-04-06 00:22:00,SystemResetWarning,0813.9,5.02,000.00,025.3,022.7,000.0,034.4,026.3,007.4,0000.0,0003.47,0014.65,0001.45
2024-04-06 00:23:00,SystemResetWarning,0813.9,5.00,000.00,025.3,023.0,000.0,034.3,026.5,007.0,0000.0,0003.50,0014.58,0001.46
2024-04-06 00:24:00,SystemResetWarning,0814.0,5.00,000.00,025.3,023.3,000.0,034.2,026.7,007.3,0000.0,0003.55,0014.79,0001.46
2024-04-06 00:25:00,SystemResetWarning,0814.0,5.01,000.00,025.3,023.6,000.0,034.1,026.9,007.5,0000.0,0003.54,0014.76,0001.45
2024-04-06 00:26:00,SystemResetWarning,0814.0,5.00,000.00,025.3,023.9,000.0,034.1,027.0,007.3,0000.0,0003.49,0015.83,0001.45
2024-04-06 00:27:00,SystemResetWarning,0814.0,5.00,000.00,025.3,024.1,000.0,034.0,027.1,007.2,0000.0,0003.44,0016.25,0001.44
2024-04-06 00:28:00,SystemResetWarning,0814.0,4.99,000.00,025.4,024.3,000.0,034.0,027.1,007.5,0000.0,0003.39,0016.03,0001.44
2024-04-06 00:29:00,SystemResetWarning,0814.0,5.00,000.00,025.4,024.4,000.0,034.0,027.2,007.7,0000.0,0003.32,0015.57,0001.44
2024-04-06 00:30:00,SystemResetWarning,0814.0,5.00,000.00,025.4,024.5,000.0,034.0,027.2,007.8,0000.0,0003.24,0014.64,0001.44
2024-04-06 00:31:00,SystemResetWarning,0813.9,5.00,000.00,025.5,024.6,000.0,034.0,027.3,007.6,0000.0,0003.26,0014.70,0001.45
2024-04-06 00:32:00,SystemResetWarning,0813.9,4.99,000.00,025.5,024.7,000.0,034.0,027.3,007.6,0000.0,0003.28,0014.70,0001.45
2024-04-06 00:33:00,SystemResetWarning,0813.9,5.00,000.00,025.5,024.8,000.0,034.0,027.4,007.9,0000.0,0003.31,0015.47,0001.44
2024-04-06 00:34:00,SystemResetWarning,0813.9,5.00,000.00,025.6,024.8,000.0,034.0,027.4,007.9,0000.0,0003.42,0016.31,0001.43
2024-04-06 00:35:00,SystemResetWarning,0813.9,5.00,000.00,025.6,024.9,000.0,034.0,027.4,007.6,0000.0,0003.42,0016.49,0001.44
2024-04-06 00:36:00,SystemResetWarning,0813.9,5.00,000.00,025.6,024.9,000.0,034.0,027.5,007.6,0000.0,0003.46,0017.45,0001.45
2024-04-06 00:37:00,SystemResetWarning,0814.0,5.00,000.00,025.7,024.9,000.0,034.1,027.5,007.8,0000.0,0003.49,0017.03,0001.45
2024-04-06 00:38:00,SystemResetWarning,0813.9,5.01,000.00,025.7,025.0,000.0,034.1,027.5,007.7,0000.0,0003.46,0015.67,0001.45
2024-04-06 00:39:00,SystemResetWarning,0813.9,5.01,000.00,025.7,025.0,000.0,034.1,027.5,007.8,0000.0,0003.54,0016.14,0001.47
2024-04-06 00:40:00,SystemResetWarning,0813.9,4.99,000.00,025.7,025.0,000.0,034.1,027.6,007.8,0000.0,0003.63,0016.91,0001.48
2024-04-06 00:41:00,SystemResetWarning,0813.9,4.99,000.00,025.8,025.0,000.0,034.1,027.6,007.7,0000.0,0003.66,0017.61,0001.49
2024-04-06 00:42:00,SystemResetWarning,0813.9,5.00,000.00,025.8,025.0,000.0,034.1,027.6,007.8,0000.0,0003.68,0019.03,0001.49
2024-04-06 00:43:00,SystemResetWarning,0813.9,5.00,000.00,025.8,025.0,000.0,034.2,027.6,007.4,0000.0,0003.70,0020.29,0001.50
2024-04-06 00:44:00,SystemResetWarning,0813.9,5.01,000.00,025.8,025.0,000.0,034.2,027.6,007.5,0000.0,0003.73,0021.75,0001.51
2024-04-06 00:45:00,SystemResetWarning,0813.9,5.00,000.00,025.8,025.0,000.0,034.2,027.6,007.5,0000.0,0003.69,0022.65,0001.53
2024-04-06 00:46:00,SystemResetWarning,0813.9,5.00,000.00,025.8,025.0,000.0,034.2,027.6,007.7,0000.0,0003.68,0022.62,0001.53
2024-04-06 00:47:00,SystemResetWarning,0813.9,5.01,000.00,025.8,025.0,000.0,034.2,027.6,007.7,0000.0,0003.72,0022.35,0001.54
2024-04-06 00:48:00,SystemResetWarning,0813.9,5.00,000.00,025.8,025.0,000.0,034.2,027.6,007.6,0000.0,0003.72,0021.85,0001.55
2024-04-06 00:49:00,SystemResetWarning,0813.9,4.99,000.00,025.9,025.0,000.0,034.3,027.7,007.7,0000.0,0003.79,0022.22,0001.57
2024-04-06 00:50:00,SystemResetWarning,0813.9,4.99,000.00,025.9,025.0,000.0,034.3,027.7,007.6,0000.0,0003.79,0022.76,0001.55
2024-04-06 00:51:00,SystemResetWarning,0813.9,4.99,000.00,025.9,025.0,000.0,034.3,027.7,007.7,0000.0,0003.82,0022.52,0001.55
2024-04-06 00:52:00,SystemResetWarning,0813.9,5.01,000.00,025.9,025.0,000.0,034.3,027.7,007.8,0000.0,0003.90,0022.78,0001.56
2024-04-06 00:53:00,SystemResetWarning,0813.9,5.01,000.00,025.9,025.0,000.0,034.3,027.7,007.7,0000.0,0003.97,0021.37,0001.56
2024-04-06 00:54:00,SystemResetWarning,0813.9,5.00,000.00,025.9,025.0,000.0,034.3,027.7,007.6,0000.0,0003.96,0020.26,0001.55
2024-04-06 00:55:00,SystemResetWarning,0813.9,4.99,000.00,025.9,025.0,000.0,034.3,027.7,007.6,0000.0,0003.95,0018.49,0001.54
2024-04-06 00:56:00,SystemResetWarning,0814.0,4.99,000.00,025.9,025.0,000.0,034.3,027.7,007.7,0000.0,0003.92,0017.11,0001.53
2024-04-06 00:57:00,SystemResetWarning,0814.0,5.00,000.00,025.9,025.0,000.0,034.4,027.7,008.0,0000.0,0003.94,0018.22,0001.53
2024-04-06 00:58:00,SystemResetWarning,0814.0,5.01,000.00,025.9,025.0,000.0,034.4,027.7,007.7,0000.0,0003.92,0018.18,0001.53
2024-04-06 00:59:00,SystemResetWarning,0814.0,5.01,000.00,025.9,025.0,000.0,034.4,027.7,007.7,0000.0,0003.99,0019.55,0001.53
